User: anonymous
Location: Caltech
(34.1382°N, 118.1253°W)
Time: 14:06:17
(UTC-07:00)
Language:

TMSAT-1 - Orbit

View from above orbital plane
View from above orbital plane
View from above satellite
View from above satellite

Ground track
Ground track

The orbit data is extracted from the following two-line orbital elements,

1 25396U 98043C   14112.94138546  .00000233  00000-0  11909-3 0  8347
2 25396 098.4326 076.9559 0003851 091.4421 317.9908 14.24155229820291
Epoch (UTC): 22 April 2014 22:35:35
Eccentricity: 0.0003851
inclination: 98.4326°
perigee height: 808 km
apogee height: 814 km
right ascension of ascending node: 76.9559°
argument of perigee: 91.4421°
revolutions per day: 14.24155229
mean anomaly at epoch: 317.9908°
orbit number at epoch: 82029

The dashed part of the orbit path shows where the satellite is in the earth's shadow,  

DLR